Weather in Ilfracombe

United Kingdom     51°12′24″N   4°07′31″W
temp.,
°C
wind,
m/s
gust,
m/s
humid.,
%
clouds,
%
prec.,
mm/h
press.,
hPa
HPBL,
m
19 april, mon
mon1901:00+9ese117199 0.0 102435
04:00+7sse237577 0.0 1022114
07:00+8se3376100 0.0 1022171
10:00+9ese2374100 0.0 1022215
13:00+10ene2274100 0.0 102191
16:00+11e3368100 0.0 101970
19:00+11ssw2370100 0.0 101931
22:00+10w2278100 0.0 101930
20 april, tue
tue2001:00+9w1177100 0.0 101924
04:00+9ssw1178100 0.0 101858
07:00+8sse1175100 0.0 101979
10:00+9ene337294 0.0 1019266
13:00+9ne446496 0.0 1019189
16:00+10nne346858 0.0 1019119
19:00+11n457269 0.0 101995
22:00+11ne227758 0.0 102014
21 april, wed
wed2101:00+10ese337793 0.0 102028
04:00+10e457982 0.0 102087
07:00+9e69825 0.0 1020318
10:00+9e1013855 0.0 1022516
13:00+10e9128414 0.0 1022475
16:00+10ene912826 0.0 1022342
19:00+10e812795 0.0 1022325
22:00+9ene7108160 0.0 1024325
22 april, thu
thu2201:00+9e811700 0.0 1025616
04:00+7e89714 0.0 1025547
07:00+6e910725 0.0 1026559
10:00+7e910645 0.0 1027533
13:00+8ene89655 0.0 1027379
16:00+9ene79655 0.0 1027279
19:00+10e57695 0.0 1027118
22:00+10e57775 0.0 1028116
23 april, fri
fri2301:00+9ese46755 0.0 1028162
04:00+8e46760 0.0 1028296
07:00+8e69774 0.0 1029428
10:00+8e810705 0.0 1030534
13:00+9ene810685 0.0 1029382
16:00+10ene710715 0.0 1028275
19:00+11ene68725 0.0 1028109
22:00+10e588179 0.0 1029123